Content
SEND FEEDBACK

Daily
Averages
Monthly
Summary
Ecuador

QUITO, ECUADOR


Home > South America > Ecuador
Elevation: 9223 feet     Latitude: 00 09S     Longitude: 078 29W

WEATHER
 
SELECT A DAY
Number of Records: 171,715;   Date Range: 6/30/96 - 10/20/14
 
SHARE

PRINT THIS DATA

[ ← Previous Day ]
WEATHER ALMANAC - JANUARY 31, 2013
[ Next Day → ]
[ °C ]   °F
Weather ElementAverageHighLow
Temperature59.1 °F69.8 °F (11:30 am)48.2 °F (5:00 am)
Dewpoint47.4 °F53.6 °F (2:30 pm) (7:00 pm)
Humidity71.9 %100 % (6:00 am)38 % (11:30 am)
Barometer30.28 in30.36 in (11:00 pm)30.21 in (3:30 pm)
Wind Speed6.2 mph19.6 mph (5:00 pm)
Wind Gust19.6 mph (11:30 am)
Weather ElementAverage
Visibility6.2 mi
Wind DirectionSSW (218.1 °)

Weather ElementTotal
Precipitation---
Heating Degree Days6 (Base 65)
Growing Degree Days9 (Base 50)
Averaged from 47 records on January 31, 2013
WEATHER CONDITIONS BREAKOUT
WIND DIRECTION BREAKOUT
WEATHER BY HOUR - JANUARY 31, 2013
[ °C ]   °F
Local TimeTemperatureDewpointHumidityBarometerVisibilityWind DirectionWind SpeedGust SpeedPrecipitationEventsConditions
12:30 AM51.8 °F50.0 °F94 %30.33 in5.0 miNW (320°)3.5 mphFogFog
1:00 AM51.8 °F0.0 °F30.33 in3.7 miNNW (340°)1.2 mphFogMostly Cloudy
2:00 AM53.6 °F51.8 °F94 %30.30 in6.2 miSE (140°)2.3 mphFogMostly Cloudy
3:00 AM51.8 °F50.0 °F94 %30.30 in6.2 miCalmFogMostly Cloudy
4:00 AM50.0 °F0.0 °F30.27 in3.7 miNNW (330°)2.3 mphFogMostly Cloudy
5:00 AM48.2 °F46.4 °F93 %30.27 in6.2 miNNE (30°)1.2 mphFogPartly Cloudy
5:30 AM50.0 °F48.2 °F94 %30.27 in5.0 miCalmFogFog
6:00 AM48.2 °F48.2 °F100 %30.30 in5.0 miEast (90°)1.2 mphFogScattered Clouds
6:30 AM48.2 °F46.4 °F93 %30.27 in6.2 miSE (130°)1.2 mphScattered Clouds
7:00 AM49.0 °F49.0 °F98 %12.0 miEast (100°)1.2 mphPartly Cloudy
7:00 AM50.0 °F48.2 °F94 %30.30 in6.2 miEast (100°)1.2 mphScattered Clouds
7:30 AM51.8 °F51.8 °F100 %30.30 in6.2 miNNW (330°)2.3 mphScattered Clouds
8:00 AM57.2 °F50.0 °F77 %30.30 in6.2 miCalmMostly Cloudy
8:30 AM60.8 °F50.0 °F68 %30.30 in6.2 miNE (50°)2.3 mphPartly Cloudy
9:00 AM60.8 °F50.0 °F68 %30.33 in6.2 miNW (320°)4.6 mphPartly Cloudy
9:30 AM64.4 °F48.2 °F56 %30.33 in6.2 miNE (50°)2.3 mphPartly Cloudy
10:00 AM64.4 °F48.2 °F56 %30.33 in6.2 miEast (90°)3.5 mphPartly Cloudy
10:00 AM65.0 °F49.0 °F45 %12.0 miEast (90°)3.5 mphHaze
10:30 AM66.2 °F46.4 °F49 %30.30 in6.2 miSSE (150°)4.6 mphScattered Clouds
11:00 AM66.2 °F44.6 °F46 %30.30 in6.2 miESE (110°)3.5 mphMostly Cloudy
11:30 AM69.8 °F42.8 °F38 %30.30 in6.2 miSouth (170°)8.1 mph19.6 mphMostly Cloudy
12:00 PM69.8 °F42.8 °F38 %30.27 in6.2 miSE (130°)6.9 mphMostly Cloudy
12:30 PM69.8 °F42.8 °F38 %30.27 in6.2 miESE (110°)4.6 mphMostly Cloudy
1:00 PM69.8 °F44.6 °F40 %30.27 in6.2 miSouth (170°)3.5 mphMostly Cloudy
1:30 PM66.2 °F51.8 °F60 %30.24 in6.2 miNNW (340°)11.5 mphMostly Cloudy
2:00 PM66.2 °F51.8 °F60 %30.24 in6.2 miNNW (330°)10.4 mphMostly Cloudy
2:30 PM68.0 °F53.6 °F60 %30.24 in6.2 miNorth (350°)11.5 mphScattered Clouds
3:00 PM66.2 °F51.8 °F60 %30.24 in6.2 miNNW (330°)13.8 mphScattered Clouds
3:30 PM66.2 °F53.6 °F64 %30.21 in6.2 miNNW (340°)16.1 mphScattered Clouds
4:00 PM64.4 °F51.8 °F64 %30.21 in6.2 miNNW (330°)15.0 mphPartly Cloudy
4:00 PM65.0 °F52.0 °F54 %12.0 miNNW (330°)11.5 mphHaze
4:30 PM64.4 °F51.8 °F64 %30.21 in6.2 miNNW (330°)18.4 mphPartly Cloudy
5:00 PM62.6 °F51.8 °F68 %30.21 in6.2 miNNW (330°)19.6 mphPartly Cloudy
5:30 PM59.0 °F51.8 °F77 %30.21 in6.2 miNNW (340°)16.1 mphScattered Clouds
6:00 PM59.0 °F51.8 °F77 %30.24 in6.2 miNNW (340°)17.3 mphScattered Clouds
6:30 PM59.0 °F50.0 °F72 %30.24 in6.2 miNNW (330°)10.4 mphMostly Cloudy
7:00 PM57.0 °F44.0 °F51 %7.0 miNNW (330°)3.5 mphPartly Cloudy
7:00 PM59.0 °F50.0 °F72 %30.27 in6.2 miNW (320°)12.7 mphMostly Cloudy
7:30 PM59.0 °F50.0 °F72 %30.27 in6.2 miNNW (340°)11.5 mphMostly Cloudy
8:00 PM59.0 °F50.0 °F72 %30.30 inNorth (350°)5.8 mphFogScattered Clouds
8:30 PM57.2 °F50.0 °F77 %30.30 inNNW (340°)4.6 mphPartly Cloudy
9:00 PM57.2 °F51.8 °F82 %30.33 inNNE (20°)3.5 mphFogMostly Cloudy
9:30 PM57.2 °F51.8 °F82 %30.33 inNNW (330°)4.6 mphFogPartly Cloudy
10:00 PM53.6 °F51.8 °F94 %30.33 inNW (310°)2.3 mphClear
10:30 PM53.6 °F51.8 °F94 %30.33 in2.5 miEast (100°)1.2 mphFogPartly Cloudy
11:00 PM53.6 °F51.8 °F94 %30.36 in2.5 miEast (80°)1.2 mphFogFog
11:30 PM55.4 °F53.6 °F94 %30.36 in1.9 miNorth (360°)2.3 mphFogMostly Cloudy
Hourly data recorded from SEQU, located miles away from Quito, Ecuador







STORIES FROM OUR PARTNERS